SL-16 R/B (23705 NORAD) Tracking and Keplerian Element Data

This shows tracking and keplerian element data for the satellite.

Feedback or suggestion? Click here.




ElementValue
Catalog23705
NameSL-16 R/B
Epoch Orbit19437
Epoch Day350.92177829
Epoch Year2018
RAAN319.8382
Inclination71.0224
Eccentricity0.0012924
Argument of Perigee194.6715
Mean Anonmoly165.4035
Mean Motion14.15119538
Decay Rate-2.88E-06
L11 23705U 95058B 18350.92177829 -.00000288 00000-0 -12399-3 0 9993
L22 23705 71.0224 319.8382 0012924 194.6715 165.4035 14.15119538194376

Live tracking and technical data element details for SL-16 R/B (NORAD 23705). SL-16 R/B can be tracked NOW for your location showing map with azimuth and elevation plus other details from your city location.

Track the satellite on the map from your city or location and see movement details for azimuth, elevation, latitude, longitude, range, height, and movement on the map or in text.







IsCatalogInMostPopularTable: catalog: 23705, numindb: 38
Update: records affected: 1



GetName: 23705 SL-16 R/B

Hit Count: updated at: Tue, 18 Dec 2018 22:10:56 GMT